Location: Mason
(37.5237°N, 89.2543°W)
Time: 20:31:12
(UTC+00:00)

SJ 16-02 - Pass Details

Date: 08 December 2021
Orbit: 605 x 616 km, 75.0° (Epoch: 17 January)

Event Time Altitude Azimuth Distance (km) Brightness Sun altitude
Rises 12:01:28 0° 227° (SW) 2,851 4.5 -11.3°
Reaches altitude 10° 12:04:05 10° 242° (WSW) 1,950 3.5 -10.8°
Maximum altitude 12:07:33 23° 295° (WNW) 1,310 2.4 -10.2°
Drops below altitude 10° 12:11:01 10° 348° (NNW) 1,958 3.6 -9.5°
Sets 12:13:39 0° 3° (N) 2,866 4.6 -9.0°
